|   |  | Comet P/2000 Y3 = 2010 Q1 (SCOTTI)
					
					
					
					
						
					
					
						
							(Preview) 
						
							
								Orbital elements:     P/2000 Y3 = 2010 Q1 (Scotti) Epoch 2000 Oct. 23.0 TT = JDT 2451840.5 T 2000 Nov. 2.33075 TT                                  MPC q   4.0476046            (2000.0)            P               Q n   0.08651064     Peri.   88.61663     +0.10693699     -0.99426048 a   5.0631762      Node   355.24092     +0.89591760     +0.09777775 e   0.2005799      Incl.    2.24740     +0.43115673     +0.04342370 P  11...   | Blobrana | 1 |  |  | 
		
			
			
				
				
					|   |  | Comet P/2003 S2 (NEAT) = P/2010 P5
					
					
					
					
						
					
					
						
							(Preview) 
						
							
								Orbital elements: P/2003 S2 (NEAT) = P/2010 P5 Epoch 2011 Mar. 20.0 TT = JDT 2455640.5 T 2011 Mar. 3.18648 TT                                  MPC q   2.4560144            (2000.0)            P               Q n   0.13113841     Peri.  283.88978     +0.97100079     -0.19883578 a   3.8369202      Node    87.70344     +0.23599637     +0.88600032 e   0.3598995      Incl.    7.63454     -0.03825161     +0.41888873 P   7....   | Blobrana | 0 |  |  | 
		
			
			
				
				
					|   |  | Comet P/1999 U3 (LINEAR)
					
					
					
					
						
					
					
						
							(Preview) 
						
							
								Ephemeris Date    TT    R. A. (2000) Decl.     Delta      r     Elong.  Phase   Mag 2010 07 18    04 58.01   +37 11.5    2.584    1.921    40.1    19.9  18.4 2010 07 23    05 13.39   +37 23.8    2.560    1.922    41.6    20.5  18.4 2010 07 28    05 28.67   +37 29.8    2.536    1.924    43.1    21.1  18.4 2010 08 02    05 43.80   +37 29.9    2.512    1.926    44.6    21.7  18.3 | Blobrana | 2 |  |  | 
		
			
			
				
				
					|   |  | Comet P/2002 P2 (NEAT) = P/2010 P1
					
					
					
					
						
					
					
						
							(Preview) 
						
							
								Orbital elements:     P/2002 P2 (NEAT) = P/2010 P1 Epoch 2010 Oct. 11.0 TT = JDT 2455480.5 T 2010 Oct. 4.26925 TT                                  MPC q   2.1238403            (2000.0)            P               Q n   0.12987536     Peri.  351.92355     +0.38108670     -0.84034941 a   3.8617564      Node    74.97487     +0.86899129     +0.18323312 e   0.4500325      Incl.   23.52274     +0.31563754     +0.51013576 P   7...   | Blobrana | 0 |  |  | 
		
			
			
				
				
					|   |  | Comet P/1999 XB69 = 2010 C2 (LINEAR)
					
					
					
					
						
					
					
						
							(Preview) 
						
							
								Orbital elements:     P/1999 XB69 = 2010 C2 (LINEAR) Epoch 2000 Feb. 26.0 TT = JDT 2451600.5 T 2000 Feb. 17.03714 TT                                 MPC q   1.6392585            (2000.0)            P               Q n   0.10485480     Peri.  220.17973     -0.43157808     -0.88165151 a   4.4539347      Node   256.16691     +0.86986569     -0.35070921 e   0.6319527      Incl.   11.33647     +0.23890173     -0.315743...    | Blobrana | 0 |  |  | 
		
			
			
				
				
					|   |  | Sungrazer comet 30.07.10
					
					
					
					
						
					
					
						
							(Preview) 
						
							
								A sungrazer comet was discovered in SOHO satellite C2 images by R. Kracht on the 29th July, 2010. The comet belongs to the Meyer orbital group. | Blobrana | 0 |  |  | 
		
			
			
				
				
					|   |  | Comet P/2005 U1 = 2010 N2 (READ)
					
					
					
					
						
					
					
						
							(Preview) 
						
							
								Orbital elements:     P/2005 U1 = 2010 N2 (Read) Epoch 2005 July 9.0 TT = JDT 2453560.5 T 2005 July 27.88961 TT                                 MPC q   2.3647335            (2000.0)            P               Q n   0.17507375     Peri.  325.78172     +0.95399499     -0.29932138 a   3.1646233      Node    51.64463     +0.27978833     +0.86798888 e   0.2527599      Incl.    1.26618     +0.10775919     +0.39623480 P   5.63...                  | Blobrana | 0 |  |  | 
		
			
			
				
				
					|   |  | Comets C/2009 Y15, 2009 Y16, 2009 Y17 (STEREO)
					
					
					
					
						
					
					
						
							(Preview) 
						
							
								Comets C/2009 Y15, 2009 Y16, 2009 Y17 (STEREO)  Orbital elements: Comet            T              q       e       Peri.    Node     Incl.     C CK09Y150   2009 Dec.  30.79   0.0050   1.0      95.55     7.30   143.19     M CK09Y160   2009 Dec.  31.19   0.0047   1.0      65.57   356.77   143.33     M CK09Y170   2009 Dec.  31.72   0.0051   1.0      84.25     8.96   143.23     M  [url=http://www.minorplanetcente...     | Blobrana | 0 |  |  |